Location: Bazugues
(43.4465°N, 0.3432°E)
Time: 11:07:32
(UTC+00:00)

Cosmos 1331 Rocket - Pass Details

Date: 12 January 2026
Orbit: 745 x 773 km, 74.0° (Epoch: 11 February)

Event Time Altitude Azimuth Distance (km) Brightness Sun altitude
Rises 18:46:57 0° 207° (SSW) 3,175 7.7 -21.7°
Reaches altitude 10° 18:49:19 10° 210° (SSW) 2,254 6.9 -22.1°
Maximum altitude 18:54:23 65° 293° (WNW) 823 4.3 -23.0°
Enters shadow 18:57:30 24° 9° (N) 1,534 5.4 -23.6°
